This demonstration page uses our WeatherBlox Daily Observations layout. Learn more.

Left ArrowRight Arrow

36.17497, -115.13722

Hourly Observations for July 25, 2020

Temp ( °F °C ) Dew Point ( °F °C ) Humidity (%) Winds ( mph kmh ) Pressure ( in mb ) Visibility ( mi km ) Precip ( " mm )
12:53 am 00:53 Clear 89 31.7 36 2.2 15 15 S 6 9 29.81 1009 10 16 0.00 0.00
1:53 am 01:53 Clear 85 29.4 34 1.1 16 16 Calm 29.82 1010 10 16 0.00 0.00
2:53 am 02:53 Clear 83 28.3 37 2.8 19 19 WNW 5 7 29.82 1010 10 16 0.00 0.00
3:53 am 03:53 Clear 82 27.8 38 3.3 21 21 W 3 6 29.83 1010 10 16 0.00 0.00
4:53 am 04:53 Clear 79 26.1 37 2.8 22 22 WNW 7 11 29.84 1011 10 16 0.00 0.00
5:53 am 05:53 Sunny 78 25.6 37 2.8 23 23 NW 3 6 29.85 1011 10 16 0.00 0.00
6:53 am 06:53 Sunny 80 26.7 41 5 25 25 NW 3 6 29.88 1012 10 16 0.00 0.00
7:53 am 07:53 Sunny 87 30.6 40 4.4 19 19 NE 3 6 29.89 1012 10 16 0.00 0.00
8:53 am 08:53 Sunny 90 32.2 39 3.9 17 17 VRB 6 9 29.89 1012 10 16 0.00 0.00
9:53 am 09:53 Sunny 92 33.3 40 4.4 16 16 SE 5 7 29.90 1012 10 16 0.00 0.00
10:53 am 10:53 Sunny 94 34.4 39 3.9 15 15 VRB 3 6 29.89 1012 10 16 0.00 0.00
11:53 am 11:53 Sunny 97 36.1 40 4.4 14 14 undefined N/A 29.88 1012 10 16 0.00 0.00
12:53 pm 12:53 Sunny 99 37.2 39 3.9 12 12 SSE 12 19 29.85 1011 10 16 0.00 0.00
1:53 pm 13:53 Sunny 102 38.9 33 0.6 9 9 SE 10 17 29.83 1010 10 16 0.00 0.00
2:53 pm 14:53 Sunny 102 38.9 32 0 9 9 SSE 7 11 29.81 1010 10 16 0.00 0.00
3:53 pm 15:53 Sunny 102 38.9 35 1.7 10 10 E 8 13 29.78 1009 10 16 0.00 0.00
4:53 pm 16:53 Sunny 104 40 23 -5 6 6 SE 7 11 29.77 1008 10 16 0.00 0.00
5:53 pm 17:53 Sunny 103 39.4 20 -6.7 5 5 S 9 15 29.76 1008 10 16 0.00 0.00
6:53 pm 18:53 Sunny 102 38.9 20 -6.7 5 5 SSW 12 19 29.76 1008 10 16 0.00 0.00
7:53 pm 19:53 Clear 100 37.8 24 -4.4 7 7 SW 7 11 29.76 1008 10 16 0.00 0.00
8:53 pm 20:53 Clear 98 36.7 26 -3.3 8 8 WSW 8 13 29.78 1009 10 16 0.00 0.00
9:53 pm 21:53 Clear 95 35 27 -2.8 9 9 WSW 7 11 29.80 1009 10 16 0.00 0.00
10:53 pm 22:53 Clear 92 33.3 27 -2.8 10 10 S 6 9 29.82 1010 10 16 0.00 0.00
11:53 pm 23:53 Clear 92 33.3 26 -3.3 9 9 SSW 5 7 29.83 1010 10 16 0.00 0.00

Powered by AerisWeather